www.pogodaiklimat.ru

Погода и климат >> Архив погоды >> Россия >> Тува >> Туран


ПОГОДА в Туране

  • Прогноз погоды в Туране
  • Монитор погоды в Туране

АРХИВ ПОГОДЫ в Туране

Время (UTC), дата Ветер
(напр.,м/с)
 
Видим.   Явления Облачность Т
(С)
Тd
(С)
f
(%)
Тe
(С)
Тes
(С)
Комфортность P
(гПа)
Po
(гПа)
Тmin
(С)
Tmax
(С)
R
(мм)
R24
(мм)
S
(см)
12 11.08 С 4 50 км {ливн. осадки} 8/8 600 м
[Cb cap]
+15.9 +6.6 54 +15 +15 1013.7 916.8 +18.2 1
15 11.08 С 1 20 км 5/5 600 м
[Cb cap]
+10.6 +7.2 79 +10 +10 1016.5 917.7
18 11.08 СЗ 1 20 км 6/6 600 м
[Cb cap]
+7.8 +5.9 88 +7 +7 1017.8 917.9
21 11.08 СВ 1 20 км 8/8 600 м
[Cb cap]
+7.6 +5.5 87 +7 +7 1017.3 917.4
00 12.08 В 1 50 км 6/6 600 м
[Cb cap]
+8.6 +6.1 84 +8 +9 1017.2 917.6 +6.6
03 12.08 штиль 0 50 км 8/8 600 м
[Cb cap]
+15.1 +7.1 59 +15 +17 1013.8 916.7
06 12.08 З 1 50 км 8/8 600 м
[Cb cap]
+18.4 +8.0 51 +20 +23 1011.0 915.2
09 12.08 С 3 50 км 6/6 600 м
[Cb cap]
+18.0 +7.7 51 +18 +21 1009.6 913.8
12 12.08 С 2 50 км 8/8 600 м
[Cb cap]
+16.4 +7.6 56 +17 +17 1009.8 913.5 +19.8
15 12.08 Ю 1
{11}
20 км {гроза, ливн. осадки} 8/8 600 м
[Cb cap]
+11.5 +8.7 83 +11 +11 1012.6 914.5
18 12.08 С 2 20 км {гроза, ливн. осадки} 6/6 600 м
[Cb cap]
+9.7 +7.6 87 +8 +8 1013.1 914.4
21 12.08 С 1 20 км 4/4 600 м
[Cb cap]
+6.6 +5.1 90 +5 +5 1013.9 914.0
00 13.08 С 3 50 км 4/4 600 м
[Cb cap]
+7.3 +5.4 88 +4 +5 1013.7 914.0 +5.6 0.4
03 13.08 В 1 50 км 4/4 600 м
[Cb cap]
+14.4 +7.6 64 +15 +21 1010.6 913.6
06 13.08 ЮЗ 2 50 км 6/6 600 м
[Cb cap]
+18.6 +6.1 44 +19 +25 1007.7 912.2
09 13.08 З 3 50 км 6/6 600 м
[Cb cap]
+21.1 +6.1 38 +22 +24 комфорт 1005.6 911.1
12 13.08 Ю 2 50 км 1/1 1000 м
[Cu hum]
+19.4 +7.5 46 +21 +21 комфорт 1006.3 911.2 +21.5
15 13.08 ЮЗ 1 20 км 3/3 1000 м
[Cu hum]
+12.2 +8.7 79 +12 +12 1009.5 911.9
18 13.08 С 1 20 км ясно +9.7 +6.9 83 +9 +9 1010.4 911.9
21 13.08 СЗ 2 20 км ясно +9.5 +6.3 80 +8 +8 1011.0 912.3
00 14.08 С 1 50 км ясно +9.0 +6.6 85 +8 +10 1011.6 912.8 +6.5
03 14.08 ЮЗ 2 50 км ясно +15.8 +9.7 67 +16 +25 1009.1 912.8
06 14.08 ЮВ 2 50 км 3/1 1000 м
[Cu hum Ci fib]
+20.5 +5.9 39 +22 +34 комфорт 1007.3 912.4
09 14.08 З 3 50 км 3/0
[Ci sp]
+23.0 +6.3 34 +24 +29 комфорт 1006.1 912.1
12 14.08 З 2 50 км 3/0
[Ci sp]
+20.6 +8.3 45 +23 +23 комфорт 1007.3 912.6 +23.1
15 14.08 В 1 20 км ясно +13.5 +8.0 69 +14 +14 1011.6 914.2
18 14.08 ЮВ 1 20 км ясно +10.6 +6.7 77 +10 +10 1013.4 914.9
21 14.08 СВ 1 20 км ясно +10.5 +6.9 78 +10 +10 1013.8 915.2
00 15.08 штиль 0 10 км дым ясно +11.1 +7.2 77 +11 +12 1014.5 916.0 +9.4
03 15.08 С 1 20 км в посл. час ливневой дождь 9/9 600 м
[Cb cap]
+13.3 +9.0 75 +14 +15 1013.4 915.8
06 15.08 С 2 10 км дым {ливн. осадки} 8/5 600 м
[Cb cap Ci sp]
+17.4 +9.4 59 +18 +24 1011.1 915.0
09 15.08 ЮВ 1 10 км дым 6/0
[Ci sp]
+20.9 +8.8 46 +23 +31 комфорт 1009.0 914.2
12 15.08 В 1 10 км дым 3/0
[Ci sp]
+20.0 +8.2 47 +22 +23 комфорт 1008.6 913.6 +21.8 0.0
15 15.08 В 1 10 км дым ясно +11.8 +9.1 84 +12 +12 1012.0 914.1
18 15.08 СВ 2 10 км дым 6/0
[Ci sp]
+11.2 +8.5 83 +10 +10 1011.9 913.8
21 15.08 СВ 1 10 км дым 6/0
[Ci sp]
+9.8 +7.6 86 +9 +9 1011.7 913.1
00 16.08 СВ 1 10 км дым 9/3 1000 м
[Sc Ci sp]
+10.7 +7.5 81 +10 +11 1010.0 911.9 +8.2
03 16.08 ЮЗ 2 20 км дым 8/8 600 м
[Cb cap]
+12.3 +9.8 85 +11 +13 1009.3 911.8
06 16.08 З 1 10 км слаб. ливневой дождь 10/10 600 м
[Cb cap]
+12.7 +11.1 90 +13 +13 1008.3 911.0
09 16.08 З 2 10 км слаб. ливневой дождь 10/10 600 м
[Cb cap]
+13.5 +12.3 92 +13 +13 1008.0 911.1
12 16.08 ЮВ 1 4000 м дымка {ливн. осадки} 10/10 600 м
[Cb cap]
+13.0 +12.0 94 +13 +13 1009.2 912.0 +15.4 8
15 16.08 штиль 0 10 км дым 10/10 600 м
[Cb cap]
+11.2 +10.5 95 +10 +10 1011.0 913.0
18 16.08 штиль 0 10 км дым 10/10 600 м
[Cb cap]
+11.0 +10.4 96 +10 +10 1011.6 913.5
21 16.08 штиль 0 10 км дым 10/10 600 м
[Cb cap]
+11.6 +11.0 96 +11 +11 1011.6 913.7
00 17.08 штиль 0 10 км дым 10/10 600 м
[Cb cap]
+10.8 +10.2 96 +10 +10 1013.0 914.7 +10.6
03 17.08 штиль 0 20 км 6/6 600 м
[Cb cap]
+16.6 +11.6 72 +17 +21 1010.9 914.7
06 17.08 З 3
{11}
50 км 8/8 600 м
[Cb cap]
+19.8 +8.3 47 +21 +23 комфорт 1009.4 914.2
09 17.08 С 3
{10}
50 км 8/8 600 м
[Cb cap]
+19.2 +9.1 52 +20 +21 1009.4 914.0
12 17.08 С 3 50 км 8/8 600 м
[Cb cap]
+16.9 +9.0 60 +17 +17 1010.9 914.7 +21.9
15 17.08 З 1 20 км 8/8 600 м
[Cb cap]
+14.1 +8.5 69 +15 +15 1012.9 915.6
18 17.08 штиль 0 20 км 5/5 600 м
[Cb cap]
+9.3 +7.6 89 +8 +8 1014.5 915.4
21 17.08 Ю 1 20 км 6/6 600 м
[Cb cap]
+8.1 +6.8 91 +7 +7 1014.8 915.3
00 18.08 В 1 50 км 10/10 600 м
[Cb cap]
+9.5 +7.8 89 +9 +9 1014.3 915.3 +7.5
03 18.08 ЮЗ 1 50 км 10/5 600 м
[Cb cap Cs]
+16.1 +10.1 68 +17 +21 1011.0 914.6
06 18.08 Ю 2 50 км 10/6 600 м
[Cb cap Cs]
+18.1 +10.1 60 +19 +23 1008.4 912.9

 

Местоположение метеостанции Туран (Тува, Россия): широта 52.13 долгота 93.92 высота над уровнем моря 862 м.

В архиве по умолчанию представлена погода в Туране за последнюю неделю. Архивные данные за месяц целиком и за предыдущие месяцы, начиная с января 2011 года, Вы можете получить, выбрав интересующий диапазон дат из раскрывающегося списка и нажав кнопку "Ввод!".


*Определитесь, кто Вы:
робот инопланетянин человек

Внимание! Время в таблицах - всемирное. Для получения местного времени необходимо прибавить поправку, которая равна 7 ч.

Смотрите также архив погоды в соседних городах и на ближайших метеорологических станциях:

Погода в Кызыле (Тува, Россия) (61 км)
Погода в Нижнеусинском (Красноярский край, Россия) (63 км)
Погода в Оленьей Речке (Красноярский край, Россия) (88 км)
Погода в Хову-Аксы (Тува, Россия) (113 км)
Погода в Шагонаре (Тува, Россия) (114 км)
Погода в Сосновке (Тува, Россия) (117 км)
Погода в Усть-Усе (Красноярский край, Россия) (118 км)
Погода в Сарыг-Сепе (Тува, Россия) (133 км)
Погода в Тоора-Хем (Тува, Россия) (153 км)
Погода в Ермаковском (Красноярский край, Россия) (165 км)

Пояснения к столбцам:

Ветер - указаны скорость ветра в м/с - средняя за 10 мин, порывы в срок и между сроками (в фигурных скобках) и направление, откуда дует ветер: С - северный, СВ - северо-восточный, В - восточный, ЮВ - юго-восточный, Ю - южный, ЮЗ - юго-западный, З - западный, СЗ - северо-западный.
Видимость - горизонтальная дальность видимости в метрах или километрах. При видимости от 1 до 10 км при отсутствии осадков обычно наблюдается дымка, при ухудшении видимости до 1 км и менее - туман. В сухую погоду видимость может ухудшаться дымом, пылью или мглою.
Явления - указаны атмосферные явления, наблюдавшиеся в срок или в последний час перед сроком; фигурными скобками обозначены явления, наблюдавшиеся между сроками (за 1-3 часа до срока); квадратными скобками обозначены град или гололедные отложения с указанием их диаметра в мм.
Облачность - указаны через наклонную черту общая и нижняя облачность в баллах и высота нижней границы облаков в метрах; квадратными скобками обозначены формы облаков: Ci - перистые, Cs - перисто-слоистые, Cc - перисто-кучевые, Ac - высококучевые, As - высокослоистые, Sc - слоисто-кучевые, Ns - слоисто-дождевые, Cu - кучевые, Cb - кучево-дождевые. Подробнее классификацию облаков см. в Атласе облаков (PDF).
T - Температура воздуха - температура, измеренная на высоте 2 м над землей.
Td - Температура точки росы - температура, при понижении до которой содержащийся в воздухе водяной пар достигнет насыщения.
f - Относительная влажность воздуха - влажноcть воздуха, измеренная на высоте 2 м над землей.
Te - Эффективная температура - температура, которую ощущает одетый по сезону человек в тени. Характеристика душности погоды. При расчете учитывается влияние влажности воздуха и скорости ветра на теплоощущения человека.
Tes - Эффективная температура на солнце - температура, которую ощущает человек, с поправкой на солнечный нагрев. Характеристика знойности погоды. Зависит от высоты солнца над горизонтом, облачности и скорости ветра. Ночью, в пасмурную погоду, а также при ветре 12 м/с и более поправка равна нулю.
P - Атмосферное давление - приведенное к уровню моря атмосферное давление.
Po - Атмосферное давление - измеренное на уровне метеостанции атмосферное давление.
Tmin - Минимальная температура - минимум температуры воздуха на высоте 2 м над землей.
Tmax - Максимальная температура - максимум температуры воздуха на высоте 2 м над землей.
R - Количество осадков - Количество выпавших осадков за период времени, мм. При наведении курсора мыши на число - период времени, за который выпало указанное количество осадков.
R24 - Количество осадков - Количество выпавших осадков за 24 часа, мм.
S - Снежный покров - Высота снежного покрова, см. При наведении курсора мыши на число - состояние снежного покрова и степень покрытия местности в баллах.